Regional Weather Roundup
Issued by NWS

Home | Current Version | Previous Version | Graphics & Text | Print | Product List | Glossary On
Versions: 1 2 3 4 5 6 7 8 9 10 11 12 13 14 15 16 17 18 19 20 21 22 23 24 25 26 27 28 29 30 31 32 33 34 35 36 37 38 39 40 41 42 43 44 45 46 47 48 49 50
000
ASUS43 KDMX 270106
RWRIA

WEATHER ROUNDUP FOR IOWA
NATIONAL WEATHER SERVICE DES MOINES IA
800 PM CDT THU APR 26 2018

NOTE: "FAIR" INDICATES FEW OR NO CLOUDS BELOW 12,000 FEET WITH NO
SIGNIFICANT WEATHER AND/OR OBSTRUCTIONS TO VISIBILITY.

* - THESE STATIONS ARE NOT NWS STATIONS...THUS NOT UNDER NWS
QUALITY CONTROL.  THEY ALSO DO NOT REPORT WEATHER SUCH
AS PRECIPITATION OR FOG.

IAZ001>003-012>014-020>022-031>034-043>046-270200-
   NORTHWEST IOWA

CITY           SKY/WX    TMP DP  RH WIND       PRES   REMARKS
CARROLL *      CLEAR     57  32  38 N20       29.98R
CHEROKEE *     CLEAR     56  32  41 N10G21    30.01R
DENISON *      CLEAR     57  28  33 N14G21    30.02R
LE MARS *      CLEAR     57  28  33 N15G22    30.03R
ORANGE CITY *  CLEAR     57  34  41 N15       30.03R
SHELDON *      CLEAR     55  32  41 NW14G20   30.00S
SIOUX CITY     CLEAR     58  29  33 N22G29    30.02S
SPENCER        CLEAR     54  35  48 N16       30.00S
STORM LAKE *   CLEAR     54  32  43 N17       30.00S
$$

IAZ055>058-069>071-079>083-090>094-270200-
   SOUTHWEST IOWA

CITY           SKY/WX    TMP DP  RH WIND       PRES   REMARKS
ATLANTIC *     CLEAR     59  30  33 N16G23    29.98R
AUDUBON *      CLEAR     57  28  33 N12G21    30.00R
CLARINDA *     PTCLDY    64  37  36 N15       29.98R
COUNCIL BLFS * CLEAR     59  27  29 N18       30.00R
CRESTON *      CLEAR     61  41  48 N18G25    29.95R
HARLAN  *      CLEAR     59  27  29 N15G28    30.02R
LAMONI         MOCLDY    62  40  44 W7        29.90S
RED OAK *      CLEAR     61  30  31 N17G28    29.98R
SHENANDOAH *   CLEAR     63  30  29 N15G22    29.98R
$$

IAZ047>049-059>061-072>074-084-270200-
   CENTRAL IOWA

CITY           SKY/WX    TMP DP  RH WIND       PRES   REMARKS
AMES           CLEAR     59  33  37 N24G31    29.93R
ANKENY *       CLEAR     61  36  39 N16G29    29.93R
BOONE *        CLEAR     55  34  44 NW21G28   29.94R
CHARITON *     PTCLDY    63  41  45 NW21G28   29.89R
DES MOINES     CLEAR     62  38  40 NW18G28   29.92R
GRINNELL*      CLEAR     59  42  51 NW16      29.89R
KNOXVILLE *    PTCLDY    63  39  42 N16G25    29.88R
MARSHALLTOWN   CLEAR     59  40  49 NW17      29.88R
NEWTON *       CLEAR     61  41  48 N22       29.89R
PELLA *        CLEAR     62  40  45 N14G21    29.89R
PERRY *        FAIR      57  28  33 NW22      29.96R
$$

IAZ004>006-015-016-023>025-035-036-270200-
   NORTH CENTRAL IOWA

CITY           SKY/WX    TMP DP  RH WIND       PRES   REMARKS
ALGONA *       CLEAR     52  34  50 NW18G25   29.97R
CLARION *      CLEAR     54  34  47 NW22      29.95R
ESTHERVILLE    CLEAR     50  35  56 NW20      29.98S
FORT DODGE *   CLEAR     55  34  45 N10G23    29.98R
MASON CITY     CLEAR     53  35  50 NW20      29.92R
FOREST CITY *  FAIR      54  36  50 NW15G24   29.93R
WEBSTER CITY * CLEAR     54  32  43 NW21G28   29.94R
IOWA FALLS *   FAIR      57  36  44 NW21G28   29.93R
$$

IAZ007>011-017>019-026>030-037>042-050>054-066-270200-
   NORTHEAST IOWA

CITY           SKY/WX    TMP DP  RH WIND       PRES   REMARKS
CEDAR RAPIDS   FAIR      63  43  48 NW23G31   29.82S
CHARLES CITY * FAIR      57  36  44 NW15G22   29.88R
CLINTON *        N/A     60  28  29 SW8       29.82S
DECORAH *      FAIR      59  39  47 NW8G16    29.82R
DUBUQUE        FAIR      60  29  30 W7        29.80S
MONTICELLO *   FAIR      64  37  36 NW18      29.80S
OELWEIN *      FAIR      59  41  51 NW13      29.85R
WATERLOO       FAIR      59  40  49 NW17      29.86R
$$

IAZ064-065-067-068-078-270200-
   EAST CENTRAL IOWA

CITY           SKY/WX    TMP DP  RH WIND       PRES   REMARKS
DAVENPORT      FAIR      62  29  28 W6        29.84S
IOWA CITY      FAIR      66  27  23 W8        29.83F
MT. PLEASANT * PTCLDY    61  30  31 W6        29.85S
MUSCATINE *    FAIR      64  27  24 W7        29.83F
QUAD CITIES    FAIR      63  28  26 W6        29.82S
$$

IAZ062-063-075>077-085>089-095>099-270200-
   SOUTHEAST IOWA

CITY           SKY/WX    TMP DP  RH WIND       PRES   REMARKS
BURLINGTON     CLEAR     65  27  23 W5        29.85S
FAIRFIELD *    PTCLDY    64  27  24 W6        29.85S
FORT MADISON * CLEAR     64  30  27 CALM      29.87S
KEOKUK *       CLEAR     64  32  29 W6        29.86S
OSKALOOSA *    FAIR      62  29  28 NW12      29.86R
CENTERVILLE *  FAIR      63  32  31 W7        29.89F
OTTUMWA        MOCLDY    61  33  35 W8        29.85F
WASHINGTON *   PTCLDY    63  30  29 W7        29.85S
$$

ABBREVIATIONS USED IN REMARKS
   TC - TEMPERATURES IN CELSIUS
  WCI - WIND CHILL INDEX
   HX - HEAT INDEX
  VSB - VISIBILITY
$$




USA.gov is the U.S. government's official web portal to all federal, state and local government web resources and services.